Retour au catalogue

STARLINK-34009

ActifCommunicationsVLEO
NORAD 63849·PAYLOAD·🇺🇸 United States

Lancé May 7, 2025 depuis Cape Canaveral Space Force Station

Loading…

Prochains Passages (prochaines 24 heures)

TLE

FraisSource: CelesTrak SupGP

Époque: Sep 15, 2026, 03:11 UTC

1 63849C 25093P   26258.13312500 -.00013043  00000+0 -47229-3 0  2584
2 63849  42.9997  84.7945 0001460 270.1034  43.4709 15.27592564    11

Suivez STARLINK-34009 en temps réel avec AllMySat

Download on the App Store